Location: Unspecified
(0.0000°N, 0.0000°E)
Time: 04:08:04
(UTC+00:00)

A-11 Canister half - Pass Details

Date: 20 April 2026
Orbit: 1523 x 1685 km, 47.3° (Epoch: 13 May)

Event Time Altitude Azimuth Distance (km) Brightness Sun altitude
Rises 09:33:51 0° 306° (NW) 4,846 11.4 52.2°
Reaches altitude 10° 09:37:12 10° 300° (WNW) 3,839 11.0 53.0°
Maximum altitude 09:46:18 45° 230° (SW) 2,061 9.9 55.1°
Drops below altitude 10° 09:55:10 10° 160° (SSE) 3,730 11.1 57.2°
Sets 09:58:24 0° 154° (SSE) 4,698 11.6 57.9°
